Weather History for KLKV - May, 2013

Change the Weather History Date:

Monday, May 27, 2013

  Actual Average (KAAT) Record (KAAT)
Temperature  
Mean Temperature 44 °F 54 °F  
Max Temperature 53 °F 71 °F 91 °F (1919)
Min Temperature 35 °F 38 °F 25 °F (1961)
Degree Days  
Heating Degree Days 21 11  
Month to date heating degree days 372  
Since 1 July heating degree days 6716  
Cooling Degree Days 0 0  
Month to date cooling degree days 0  
Year to date cooling degree days 0  
Moisture  
Dew Point 41 °F    
Average Humidity 81    
Maximum Humidity 93    
Minimum Humidity 70    
Precipitation  
Precipitation 0.01 in 0.04 in 0.66 in (1964)
Month to date precipitation 1.19  
Year to date precipitation 7.37  
Sea Level Pressure  
Sea Level Pressure 29.98 in    
Wind  
Wind Speed 10 mph (South)    
Max Wind Speed 23 mph    
Max Gust Speed 28 mph    
Visibility 10 miles    
Events      
T = Trace of Precipitation, MM = Missing Value Source: NWS Daily Summary

Daily Weather History Graph

Daily Weather History Graph

Search for Another Location

Airport or City:

Trip Planner

Search our weather history database for the weather conditions in past years. The results will help you decide how hot, cold, wet, or windy it might be!

Date:

Astronomy

May. 27, 2013 Rise Set
Actual Time 5:30 AM PDT 8:27 PM PDT
Civil Twilight 4:57 AM PDT 9:00 PM PDT
Nautical Twilight 4:14 AM PDT 9:43 PM PDT
Astronomical Twilight 3:25 AM PDT 10:33 PM PDT
Moon 11:09 PM PDT 8:14 AM PDT
Length of Visible Light 16h 03m
Length of Day
14h 56m
Waning Gibbous, 90% of the Moon is Illuminated
May 27
Waning Gibbous
May 31
Last Quarter
Jun 8
New
Jun 16
First Quarter
Jun 23
Full

Hourly Weather History & Observations

Time (PDT) Temp. Windchill Dew Point Humidity Pressure Visibility Wind Dir Wind Speed Gust Speed Precip Events Conditions
12:15 AM 39.2 °F 35.0 °F 33.8 °F 81% 30.09 in 10.0 mi ESE 5.8 mph - N/A   Partly Cloudy
12:35 AM 37.4 °F - 32.0 °F 81% 30.08 in 10.0 mi Calm Calm - N/A   Clear
12:55 AM 37.4 °F - 32.0 °F 81% 30.08 in 10.0 mi Calm Calm - N/A   Mostly Cloudy
1:15 AM 37.4 °F 34.9 °F 30.2 °F 75% 30.08 in 10.0 mi North 3.5 mph - N/A   Overcast
1:35 AM 35.6 °F 32.8 °F 30.2 °F 81% 30.07 in 10.0 mi North 3.5 mph - N/A   Mostly Cloudy
1:55 AM 37.4 °F - 30.2 °F 75% 30.07 in 10.0 mi Calm Calm - N/A   Overcast
2:15 AM 39.2 °F - 32.0 °F 75% 30.07 in 10.0 mi Calm Calm - N/A   Overcast
2:35 AM 39.2 °F - 33.8 °F 81% 30.06 in 10.0 mi Calm Calm - N/A   Overcast
2:55 AM 39.2 °F 35.9 °F 33.8 °F 81% 30.05 in 10.0 mi East 4.6 mph - N/A   Overcast
3:15 AM 41.0 °F 39.0 °F 33.8 °F 76% 30.05 in 10.0 mi West 3.5 mph - N/A   Overcast
3:35 AM 42.8 °F - 33.8 °F 70% 30.05 in 10.0 mi Calm Calm - N/A   Overcast
3:55 AM 42.8 °F 40.1 °F 37.4 °F 81% 30.04 in 10.0 mi ESE 4.6 mph - N/A   Overcast
4:15 AM 46.4 °F 42.9 °F 39.2 °F 76% 30.03 in 10.0 mi SSE 6.9 mph - N/A   Overcast
4:35 AM 46.4 °F 41.9 °F 39.2 °F 76% 30.03 in 10.0 mi South 9.2 mph - N/A   Overcast
4:55 AM 48.2 °F - 39.2 °F 71% 30.03 in 10.0 mi SSE 12.7 mph 18.4 mph N/A   Overcast
5:15 AM 48.2 °F - 39.2 °F 71% 30.03 in 10.0 mi South 12.7 mph 18.4 mph N/A   Overcast
5:35 AM 48.2 °F - 39.2 °F 71% 30.02 in 10.0 mi SSE 12.7 mph 18.4 mph N/A   Overcast
5:55 AM 48.2 °F - 39.2 °F 71% 30.02 in 10.0 mi South 13.8 mph - N/A   Overcast
6:15 AM 48.2 °F - 39.2 °F 71% 30.02 in 10.0 mi South 12.7 mph - N/A   Overcast
6:35 AM 46.4 °F 40.7 °F 39.2 °F 76% 30.02 in 10.0 mi South 12.7 mph 21.9 mph N/A   Overcast
6:55 AM 46.4 °F 40.1 °F 41.0 °F 81% 30.02 in 10.0 mi South 15.0 mph - N/A   Overcast
7:15 AM 46.4 °F 39.8 °F 41.0 °F 81% 30.02 in 10.0 mi South 16.1 mph - N/A   Overcast
7:35 AM 44.6 °F 38.8 °F 41.0 °F 87% 30.01 in 10.0 mi South 11.5 mph - N/A   Overcast
7:55 AM 44.6 °F 37.8 °F 41.0 °F 87% 30.01 in 10.0 mi South 15.0 mph 18.4 mph N/A   Overcast
8:15 AM 44.6 °F 37.8 °F 42.8 °F 93% 30.01 in 9.0 mi South 15.0 mph - N/A   Overcast
8:35 AM 44.6 °F 37.8 °F 42.8 °F 93% 30.01 in 9.0 mi South 15.0 mph 20.7 mph N/A   Overcast
8:55 AM 44.6 °F 37.8 °F 42.8 °F 93% 30.01 in 10.0 mi South 15.0 mph 23.0 mph N/A   Mostly Cloudy
9:15 AM 44.6 °F 37.8 °F 42.8 °F 93% 30.01 in 10.0 mi South 15.0 mph - N/A   Overcast
9:35 AM 44.6 °F 37.4 °F 41.0 °F 87% 30.01 in 10.0 mi SSW 16.1 mph 23.0 mph N/A   Overcast
9:55 AM 44.6 °F 38.8 °F 42.8 °F 93% 30.00 in 10.0 mi SSW 11.5 mph - N/A   Overcast
10:15 AM 46.4 °F 40.1 °F 42.8 °F 87% 30.00 in 10.0 mi SSW 15.0 mph - N/A   Mostly Cloudy
10:35 AM 46.4 °F 40.4 °F 42.8 °F 87% 30.00 in 10.0 mi South 13.8 mph - N/A   Overcast
10:55 AM 46.4 °F 40.4 °F 42.8 °F 87% 29.99 in 10.0 mi SSW 13.8 mph 20.7 mph N/A   Overcast
11:15 AM 46.4 °F 39.8 °F 42.8 °F 87% 29.99 in 10.0 mi South 16.1 mph 20.7 mph N/A   Overcast
11:35 AM 46.4 °F 40.4 °F 42.8 °F 87% 29.99 in 9.0 mi South 13.8 mph - N/A   Overcast
11:55 AM 46.4 °F 39.5 °F 42.8 °F 87% 29.98 in 10.0 mi South 17.3 mph 20.7 mph 0.01 in   Mostly Cloudy
12:15 PM 48.2 °F - 42.8 °F 82% 29.98 in 10.0 mi SSW 17.3 mph 21.9 mph N/A   Overcast
12:35 PM 48.2 °F - 44.6 °F 87% 29.98 in 10.0 mi South 15.0 mph - N/A   Overcast
12:55 PM 46.4 °F 39.8 °F 42.8 °F 87% 29.97 in 10.0 mi SSE 16.1 mph - N/A   Overcast
1:15 PM 48.2 °F - 44.6 °F 87% 29.96 in 10.0 mi South 12.7 mph - N/A   Overcast
1:35 PM 48.2 °F - 42.8 °F 82% 29.97 in 10.0 mi SSW 13.8 mph 21.9 mph N/A   Overcast
1:55 PM 48.2 °F - 44.6 °F 87% 29.96 in 10.0 mi SSW 13.8 mph 20.7 mph N/A   Overcast
2:15 PM 50.0 °F - 42.8 °F 76% 29.95 in 10.0 mi South 16.1 mph - N/A   Overcast
2:35 PM 50.0 °F - 42.8 °F 76% 29.95 in 10.0 mi SSW 23.0 mph 26.5 mph N/A   Overcast
2:55 PM 48.2 °F - 42.8 °F 82% 29.95 in 10.0 mi South 15.0 mph 25.3 mph N/A   Overcast
3:15 PM 51.8 °F - 44.6 °F 76% 29.95 in 10.0 mi South 15.0 mph - N/A   Overcast
3:35 PM 51.8 °F - 44.6 °F 76% 29.94 in 10.0 mi South 18.4 mph 23.0 mph N/A   Overcast
3:55 PM 51.8 °F - 42.8 °F 71% 29.93 in 10.0 mi South 20.7 mph 24.2 mph N/A   Overcast
4:15 PM 51.8 °F - 42.8 °F 71% 29.93 in 10.0 mi South 19.6 mph 24.2 mph N/A   Overcast
4:35 PM 53.6 °F - 44.6 °F 72% 29.92 in 10.0 mi South 16.1 mph 23.0 mph N/A   Overcast
4:55 PM 51.8 °F - 44.6 °F 76% 29.92 in 10.0 mi SSW 21.9 mph 26.5 mph N/A   Overcast
5:15 PM 53.6 °F - 44.6 °F 72% 29.92 in 10.0 mi SSW 20.7 mph 27.6 mph N/A   Overcast
5:35 PM 51.8 °F - 42.8 °F 71% 29.92 in 10.0 mi SSW 23.0 mph 27.6 mph N/A   Mostly Cloudy
5:55 PM 50.0 °F - 42.8 °F 76% 29.92 in 10.0 mi SSW 19.6 mph 25.3 mph N/A   Overcast
6:15 PM 51.8 °F - 42.8 °F 71% 29.92 in 10.0 mi SSW 15.0 mph 19.6 mph N/A   Overcast
6:35 PM 51.8 °F - 42.8 °F 71% 29.91 in 10.0 mi SSW 18.4 mph - N/A   Overcast
6:55 PM 50.0 °F - 42.8 °F 76% 29.91 in 10.0 mi SSW 21.9 mph - N/A   Mostly Cloudy
7:15 PM 50.0 °F - 42.8 °F 76% 29.91 in 10.0 mi SSW 16.1 mph 24.2 mph N/A   Overcast
7:35 PM 48.2 °F - 42.8 °F 82% 29.92 in 10.0 mi SSW 13.8 mph - N/A   Overcast
7:55 PM 48.2 °F - 41.0 °F 76% 29.91 in 10.0 mi South 12.7 mph 20.7 mph N/A   Overcast
8:15 PM 48.2 °F - 41.0 °F 76% 29.91 in 10.0 mi South 15.0 mph - N/A   Overcast
8:35 PM 48.2 °F - 41.0 °F 76% 29.91 in 10.0 mi South 13.8 mph 18.4 mph N/A   Overcast
8:55 PM 48.2 °F - 39.2 °F 71% 29.91 in 10.0 mi SSW 12.7 mph - N/A   Overcast
9:15 PM 46.4 °F 40.7 °F 41.0 °F 81% 29.91 in 10.0 mi SSW 12.7 mph - N/A   Overcast
9:35 PM 46.4 °F 40.1 °F 41.0 °F 81% 29.92 in 10.0 mi SSW 15.0 mph 19.6 mph N/A   Overcast
9:55 PM 44.6 °F 38.8 °F 42.8 °F 93% 29.92 in 10.0 mi SSW 11.5 mph - N/A   Overcast
10:15 PM 44.6 °F 40.7 °F 42.8 °F 93% 29.91 in 10.0 mi South 6.9 mph - N/A   Overcast
10:35 PM 44.6 °F 39.7 °F 42.8 °F 93% 29.91 in 10.0 mi South 9.2 mph - N/A   Overcast
10:55 PM 44.6 °F 39.7 °F 42.8 °F 93% 29.91 in 10.0 mi South 9.2 mph - N/A   Overcast
11:15 PM 44.6 °F 39.7 °F 42.8 °F 93% 29.91 in 9.0 mi SW 9.2 mph - N/A   Overcast
11:35 PM 42.8 °F 37.5 °F 39.2 °F 87% 29.92 in 9.0 mi West 9.2 mph 17.3 mph N/A   Overcast
11:55 PM 42.8 °F 38.6 °F 39.2 °F 87% 29.91 in 10.0 mi WSW 6.9 mph - N/A   Mostly Cloudy